Location: Newark
(55.5030°N, 22.7200°E)
Time: 04:38:07
(UTC+00:00)

Tiros 1 despin weight - All Passes

Search period start: 06 June 2020 00:00
Search period end: 16 June 2020 00:00
Orbit: 593 x 642 km, 48.2° (Epoch: 05 June)

Date Brightness Start Highest point End Pass type
(mag) Time Alt. Az. Time Alt. Az. Time Alt. Az.
06 Jun - 06:55:56 10° SSW 06:59:13 19° SSE 07:02:29 10° ESE daylight
06 Jun - 08:35:50 10° SW 08:39:57 32° S 08:44:02 10° ESE daylight
06 Jun - 10:16:50 10° WSW 10:20:50 29° SSW 10:24:47 10° SE daylight
06 Jun - 11:58:52 10° WSW 12:01:26 15° SSW 12:03:59 10° S daylight
07 Jun - 05:34:13 10° SSE 05:34:55 10° SE 05:35:37 10° SE daylight
07 Jun - 07:11:34 10° SW 07:15:21 25° SSE 07:19:08 10° ESE daylight
07 Jun - 08:52:02 10° WSW 08:56:12 33° S 09:00:20 10° ESE daylight
07 Jun - 10:33:19 10° WSW 10:37:02 24° SSW 10:40:42 10° SSE daylight
08 Jun - 05:48:07 10° S 05:50:55 16° SSE 05:53:42 10° ESE daylight
08 Jun - 07:27:29 10° SW 07:31:33 30° SSE 07:35:35 10° ESE daylight
08 Jun - 09:08:20 10° WSW 09:12:27 32° S 09:16:31 10° SE daylight
08 Jun - 10:50:00 10° WSW 10:53:09 18° SSW 10:56:17 10° SSE daylight
09 Jun - 06:03:27 10° SSW 06:07:00 22° SSE 06:10:33 10° ESE daylight
09 Jun - 07:43:37 10° WSW 07:47:48 33° S 07:51:56 10° ESE daylight
09 Jun - 09:24:44 10° WSW 09:28:41 28° SSW 09:32:34 10° SE daylight
09 Jun - 11:07:11 10° WSW 11:09:11 13° SW 11:11:11 10° S daylight
10 Jun - 04:40:38 10° S 04:42:38 13° SE 04:44:39 10° ESE daylight
10 Jun - 06:19:13 10° SW 06:23:10 27° SSE 06:27:06 10° ESE daylight
10 Jun - 07:59:52 10° WSW 08:04:03 33° S 08:08:12 10° ESE daylight
10 Jun - 09:41:17 10° WSW 09:44:50 22° SSW 09:48:22 10° SSE daylight
11 Jun - 04:55:29 10° SSW 04:58:41 18° SSE 05:01:52 10° ESE daylight
11 Jun - 06:35:15 10° SW 06:39:24 32° S 06:43:30 10° ESE daylight
11 Jun - 08:16:13 10° WSW 08:20:17 30° SSW 08:24:20 10° SE daylight
11 Jun - 09:58:06 10° WSW 10:00:56 16° SSW 10:03:44 10° S daylight
12 Jun - 05:11:02 10° SSW 05:14:48 24° SSE 05:18:33 10° ESE daylight
12 Jun - 06:51:26 10° WSW 06:55:38 34° S 06:59:49 10° ESE daylight
12 Jun - 08:32:40 10° WSW 08:36:30 25° SSW 08:40:17 10° SE daylight
12 Jun - 10:15:56 10° SW 10:16:55 11° SW 10:17:55 10° SSW daylight
13 Jun - 03:47:44 10° S 03:50:23 15° SSE 03:53:01 10° ESE daylight
13 Jun - 05:26:56 10° SW 05:30:59 30° SSE 05:35:02 10° ESE daylight
13 Jun - 07:07:43 10° WSW 07:11:54 33° S 07:16:02 10° SE daylight
13 Jun - 08:49:17 10° WSW 08:52:38 20° SSW 08:55:57 10° SSE daylight
14 Jun - 04:02:58 10° SSW 04:06:27 21° SSE 04:09:56 10° ESE daylight
14 Jun - 05:43:01 10° WSW 05:47:14 33° S 05:51:24 10° ESE daylight
14 Jun - 07:24:06 10° WSW 07:28:07 29° SSW 07:32:06 10° SE daylight
14 Jun - 09:06:19 10° WSW 09:08:41 14° SW 09:11:02 10° S daylight
15 Jun - 02:40:26 10° SSE 02:42:07 12° SE 02:43:48 10° ESE daylight
15 Jun - 04:18:41 10° SW 04:22:36 27° SSE 04:26:31 10° ESE daylight
15 Jun - 05:59:16 10° WSW 06:03:29 34° S 06:07:41 10° ESE daylight
15 Jun - 07:40:37 10° WSW 07:44:18 23° SSW 07:47:57 10° SSE daylight
